This is the latest recevied weather packets stored in our database for station/object N8TWM-13. If no packets are shown the sender has not sent any weather packets the latest 10 day(s).
| Time | Temp. | Humidity | Pressure | Rain* | Wind** | Luminosity | Snow |
|---|---|---|---|---|---|---|---|
| 1778205048 | 10.56° C | 55% | 1014 hPa | 0 mm | - | 0 W/m² | - |
| 1778204744 | 10.56° C | 55% | 1014 hPa | 0 mm | - | 0 W/m² | - |
| 1778204441 | 10.56° C | 56% | 1014 hPa | 0 mm | - | 0 W/m² | - |
| 1778204137 | 10.56° C | 56% | 1013.7 hPa | 0 mm | - | 0 W/m² | - |
| 1778203834 | 10° C | 59% | 1013.5 hPa | 0 mm | - | 0 W/m² | - |
| 1778203531 | 10° C | 58% | 1013.4 hPa | 0 mm | - | 0 W/m² | - |
| 1778203229 | 10° C | 59% | 1013.2 hPa | 0 mm | - | 0 W/m² | - |
| 1778202927 | 10° C | 59% | 1013.4 hPa | 0 mm | - | 0 W/m² | - |
| 1778202624 | 10° C | 59% | 1013.3 hPa | 0 mm | - | 0 W/m² | - |
| 1778202320 | 9.44° C | 58% | 1013.1 hPa | 0 mm | - | 0 W/m² | - |
| 1778202018 | 9.44° C | 59% | 1013.3 hPa | 0 mm | - | 0 W/m² | - |
| 1778201714 | 10° C | 58% | 1013 hPa | 0 mm | - | 0 W/m² | - |
| 1778201411 | 10° C | 58% | 1013.2 hPa | 0 mm | - | 0 W/m² | - |
| 1778201107 | 10° C | 56% | 1013.1 hPa | 0 mm | - | 0 W/m² | - |
| 1778200804 | 10° C | 56% | 1013.2 hPa | 0 mm | - | 0 W/m² | - |
| 1778200501 | 10° C | 57% | 1013.2 hPa | 0 mm | - | 0 W/m² | - |
| 1778200198 | 10.56° C | 54% | 1013 hPa | 0 mm | - | 2 W/m² | - |
| 1778199894 | 10.56° C | 52% | 1013.1 hPa | 0 mm | - | 4 W/m² | - |
| 1778199590 | 11.11° C | 51% | 1013.1 hPa | 0 mm | - | 5 W/m² | - |
| 1778199287 | 11.11° C | 50% | 1013 hPa | 0 mm | - | 9 W/m² | - |
| 1778198983 | 11.11° C | 50% | 1013.1 hPa | 0 mm | - | 12 W/m² | - |
| 1778198679 | 11.11° C | 50% | 1013.1 hPa | 0 mm | - | 14 W/m² | - |
| 1778198376 | 11.67° C | 49% | 1012.8 hPa | 0 mm | - | 17 W/m² | - |
| 1778198073 | 11.67° C | 48% | 1012.8 hPa | 0 mm | - | 21 W/m² | - |
| 1778197771 | 11.67° C | 48% | 1012.8 hPa | 0 mm | - | 26 W/m² | - |
* Rain latest hour (hover to see other rain measurements)
** Current wind speed in m/s (hover to see current wind gust speed)